[[{"header":{"parameterUnit":"m.s-1","parameterCategory":1,"la1":30.2991,"la2":30.254,"lo1":-89.0895,"lo2":-89.0444,"dy":0.0017,"dx":0.0017,"nx":28,"ny":28,"refTime":"2026-02-27T03:00:00:Z","depth":0,"parameterNumber":2,"parameterNumberName":"U-component_of_WINDS"},"data":[0,0,0,0,0,0,0,0,0,0,0,0,0,0,0,0,0,0,0,0,0,0,0,0,0,0,0,0,0,0,0,0,0,0,0,0,0,0,0,0,0,0,0,0,0,0,0,0,0,0,0,0,0,0,0,0,0,0,-0.6572,-0.6572,0,-0.6547,-0.6547,-0.6546,-0.6543,-0.6543,-0.6543,-0.6543,-0.6517,-0.6516,-0.6515,0,0,0,0,0,0,0,0,0,0,0,0,0,-0.6617,-0.6616,-0.6572,-0.6572,-0.6572,-0.6547,-0.6547,-0.6546,-0.6543,-0.6543,-0.6543,-0.6543,-0.6517,-0.6516,-0.6515,0,0,0,0,0,0,0,0,0,0,0,0,0,-0.6595,-0.6616,-0.6572,-0.6567,-0.6566,-0.6547,-0.6547,-0.6546,-0.6543,-0.6543,-0.6543,-0.6544,-0.6517,-0.6516,-0.6515,-0.6499,0,0,-0.651,-0.651,0,0,0,0,0,0,0,0,-0.6596,-0.6594,-0.6568,-0.6567,-0.6566,-0.6548,-0.6553,-0.653,-0.6542,-0.6552,-0.6543,-0.6544,-0.6527,-0.6525,-0.6519,-0.6498,-0.6496,-0.651,-0.6509,-0.6509,-0.6508,0,0,0,0,0,0,0,-0.6598,-0.6595,-0.6562,-0.6568,-0.6567,-0.6566,-0.6563,-0.6548,-0.6537,-0.6551,-0.655,-0.6548,-0.6526,-0.652,-0.6518,-0.6496,-0.651,-0.6509,-0.6508,-0.6508,-0.6459,-0.6459,0,0,0,0,0,0,-0.6601,-0.6596,-0.6563,-0.6562,-0.6583,-0.6564,-0.6561,-0.6554,-0.6538,-0.6536,-0.6547,-0.6547,-0.6523,-0.652,-0.6518,-0.6497,-0.6509,-0.6507,-0.6507,-0.646,-0.6459,-0.6459,0,0,0,0,0,0,-0.6602,-0.6598,-0.6564,-0.6579,-0.6574,-0.6563,-0.6555,-0.6553,-0.6547,-0.6535,-0.6533,-0.6543,-0.6523,-0.6519,-0.6503,-0.6496,-0.6507,-0.6506,-0.646,-0.646,-0.6459,-0.6457,0,0,0,0,0,0,-0.6603,-0.6598,-0.6592,-0.6579,-0.6574,-0.6551,-0.6554,-0.6552,-0.6545,-0.6545,-0.6531,-0.6529,-0.6523,-0.6505,-0.6502,-0.6494,-0.6504,-0.6461,-0.646,-0.6459,-0.6457,-0.6456,-0.6455,0,0,0,0,0,-0.6605,-0.6593,-0.6592,-0.6588,-0.6566,-0.655,-0.6547,-0.6541,-0.6544,-0.6538,-0.653,-0.6529,-0.6498,-0.6504,-0.65,-0.6492,-0.6461,-0.646,-0.6459,-0.6458,-0.6456,-0.6455,0,0,0,0,0,0,-0.6606,-0.6591,-0.659,-0.6573,-0.6563,-0.655,-0.6541,-0.654,-0.6528,-0.6529,-0.6522,-0.6518,-0.6502,-0.6496,-0.6503,-0.6475,-0.648,-0.6478,-0.648,-0.6478,-0.6477,-0.6479,-0.6503,0,0,0,0,0,-0.6604,-0.6593,-0.658,-0.6567,-0.6562,-0.6553,-0.6545,-0.6542,-0.6531,-0.6526,-0.6517,-0.6506,-0.6494,-0.6486,-0.6474,-0.6457,-0.6453,-0.6449,-0.6448,-0.6447,-0.6445,-0.6434,-0.6432,-0.6456,-0.6456,-0.6456,0,0,-0.66,-0.6591,-0.6584,-0.6567,-0.6558,-0.6546,-0.6549,-0.6536,-0.6527,-0.6524,-0.6508,-0.6501,-0.6489,-0.6472,-0.6464,-0.6465,-0.6438,-0.6446,-0.6445,-0.6444,-0.6433,-0.6431,-0.6429,-0.6455,-0.6455,-0.6455,0,0,-0.6587,-0.6579,-0.6567,-0.6558,-0.6546,-0.6539,-0.6537,-0.6523,-0.6519,-0.6502,-0.65,-0.6489,-0.6468,-0.6459,-0.6452,-0.6435,-0.6433,-0.6431,-0.6424,-0.6414,-0.6412,-0.641,-0.6403,-0.6401,-0.643,-0.643,-0.643,0,-0.6584,-0.6566,-0.656,-0.6547,-0.654,-0.6537,-0.6524,-0.6516,-0.65,-0.6494,-0.6497,-0.647,-0.6462,-0.6442,-0.6438,-0.6432,-0.6428,-0.6432,-0.6413,-0.6411,-0.641,-0.6403,-0.64,-0.643,-0.643,-0.643,-0.643,0,-0.6562,-0.655,-0.6541,-0.6525,-0.6517,-0.6504,-0.6496,-0.6488,-0.6485,-0.6478,-0.6462,-0.6451,-0.6437,-0.6432,-0.6429,-0.6412,-0.6413,-0.6415,-0.6419,-0.6407,-0.64,-0.6398,-0.6429,-0.6429,-0.6429,-0.6429,0,0,-0.6548,-0.653,-0.6527,-0.6519,-0.6505,-0.6495,-0.6482,-0.6468,-0.646,-0.645,-0.6438,-0.642,-0.6421,-0.6413,-0.6409,-0.64,-0.6386,-0.6402,-0.6402,-0.6399,-0.6365,-0.6363,-0.636,-0.6385,-0.6385,-0.6384,-0.6365,0,-0.6532,-0.6509,-0.6503,-0.6483,-0.6471,-0.6468,-0.6456,-0.6446,-0.644,-0.6428,-0.6422,-0.6409,-0.6412,-0.6406,-0.6398,-0.639,-0.6379,-0.6391,-0.6373,-0.6373,-0.6375,-0.6357,-0.6354,-0.6337,-0.6363,-0.6362,-0.6362,0,-0.6511,-0.6499,-0.6477,-0.6464,-0.6459,-0.6449,-0.6435,-0.6424,-0.6412,-0.6408,-0.6399,-0.6396,-0.6382,-0.6388,-0.6367,-0.6376,-0.6368,-0.6363,-0.6362,-0.6359,-0.6366,-0.6352,-0.6331,-0.6328,-0.6358,-0.6358,-0.6359,0,-0.6501,-0.648,-0.6464,-0.6458,-0.6443,-0.6435,-0.6429,-0.6417,-0.6409,-0.6397,-0.6391,-0.6378,-0.637,-0.636,-0.6353,-0.6358,-0.6333,-0.6339,-0.6328,-0.6329,-0.6322,-0.6322,-0.6299,-0.632,-0.632,-0.632,-0.632,0,-0.6483,-0.647,-0.646,-0.645,-0.6434,-0.6428,-0.6413,-0.6406,-0.6396,-0.6384,-0.6382,-0.6371,-0.6363,-0.6351,-0.6346,-0.6329,-0.6326,-0.6322,-0.632,-0.6321,-0.6321,-0.6315,-0.6315,-0.6319,-0.6319,-0.6319,-0.632,0,-0.6469,-0.6462,-0.6444,-0.6431,-0.6428,-0.6417,-0.6405,-0.6395,-0.6389,-0.6374,-0.637,-0.636,-0.6346,-0.6339,-0.6321,-0.6317,-0.6298,-0.6298,-0.6302,-0.6301,-0.629,-0.6291,-0.6261,-0.6256,-0.6281,-0.6281,-0.6281,0,-0.6458,-0.6447,-0.6433,-0.6425,-0.6418,-0.6405,-0.6396,-0.639,-0.6381,-0.6367,-0.6358,-0.6344,-0.6331,-0.6308,-0.6299,-0.6286,-0.6284,-0.6275,-0.6282,-0.6283,-0.6282,-0.6282,-0.6281,-0.6273,-0.6273,-0.6272,-0.6272,0,-0.6437,-0.6434,-0.6422,-0.6408,-0.6398,-0.6387,-0.6376,-0.637,-0.6362,-0.6352,-0.6337,-0.6327,-0.6309,-0.6294,-0.6279,-0.6272,-0.627,-0.627,-0.6267,-0.6267,-0.6269,-0.6266,-0.6296,-0.6271,-0.6271,-0.6271,-0.6271,-0.6271,-0.6423,-0.6413,-0.6402,-0.6388,-0.6379,-0.6369,-0.6358,-0.6351,-0.6338,-0.6323,-0.632,-0.6304,-0.6292,-0.6272,-0.6264,-0.6251,-0.6253,-0.6249,-0.6247,-0.6246,-0.6244,-0.6272,-0.6249,-0.6249,-0.6249,-0.6249,-0.6249,0,-0.6402,-0.6394,-0.6381,-0.6366,-0.6355,-0.6355,-0.6343,-0.6333,-0.6319,-0.6308,-0.6296,-0.6279,-0.6264,-0.6254,-0.624,-0.6231,-0.623,-0.6227,-0.6227,-0.6225,-0.6244,-0.6248,-0.6228,-0.6228,-0.6228,-0.6228,-0.6228,-0.6228,-0.6389,-0.6372,-0.6367,-0.6345,-0.6338,-0.6322,-0.6315,-0.6305,-0.6296,-0.6277,-0.6264,-0.6258,-0.6247,-0.6232,-0.6218,-0.6216,-0.621,-0.6207,-0.6204,-0.6222,-0.6224,-0.6226,-0.6229,-0.6206,-0.6206,-0.6185,-0.6185,-0.6185]},{"header":{"parameterUnit":"m.s-1","parameterCategory":1,"la1":30.2991,"la2":30.254,"lo1":-89.0895,"lo2":-89.0444,"dy":0.0017,"dx":0.0017,"nx":28,"ny":28,"refTime":"2026-02-27T03:00:00:Z","depth":0,"parameterNumber":3,"parameterNumberName":"V-component_of_WINDS"},"data":[0,0,0,0,0,0,0,0,0,0,0,0,0,0,0,0,0,0,0,0,0,0,0,0,0,0,0,0,0,0,0,0,0,0,0,0,0,0,0,0,0,0,0,0,0,0,0,0,0,0,0,0,0,0,0,0,0,0,0.7349,0.7349,0,0.7338,0.7338,0.7338,0.7347,0.7347,0.7347,0.7348,0.7335,0.7335,0.7334,0,0,0,0,0,0,0,0,0,0,0,0,0,0.7376,0.7375,0.7349,0.7349,0.7349,0.7338,0.7338,0.7338,0.7346,0.7347,0.7347,0.7348,0.7336,0.7335,0.7334,0,0,0,0,0,0,0,0,0,0,0,0,0,0.7364,0.7375,0.7349,0.7352,0.7352,0.7338,0.7338,0.7338,0.7346,0.7347,0.7347,0.7348,0.7336,0.7335,0.7334,0.7317,0,0,0.7331,0.733,0,0,0,0,0,0,0,0,0.7365,0.7363,0.7352,0.7352,0.7352,0.7344,0.7343,0.7331,0.7346,0.7349,0.7348,0.7348,0.7338,0.7337,0.7333,0.7316,0.7315,0.7331,0.733,0.733,0.7329,0,0,0,0,0,0,0,0.7366,0.7364,0.7345,0.7352,0.7352,0.7353,0.7352,0.7341,0.734,0.7348,0.7349,0.7348,0.7338,0.7334,0.7333,0.7315,0.7331,0.733,0.7329,0.7329,0.728,0.7279,0,0,0,0,0,0,0.7367,0.7365,0.7345,0.7345,0.736,0.7352,0.7351,0.7346,0.734,0.734,0.7347,0.7348,0.7336,0.7334,0.7333,0.731,0.733,0.7329,0.7328,0.728,0.7279,0.7279,0,0,0,0,0,0,0.7367,0.7365,0.7346,0.7355,0.7352,0.7351,0.7346,0.7346,0.7342,0.7339,0.7339,0.7344,0.7336,0.7334,0.732,0.731,0.7328,0.7327,0.7281,0.728,0.7279,0.7265,0,0,0,0,0,0,0.7368,0.7365,0.7359,0.7355,0.7352,0.7334,0.7345,0.7345,0.734,0.7341,0.7336,0.7336,0.7337,0.7321,0.7319,0.7308,0.7327,0.7282,0.7281,0.7279,0.7266,0.7264,0.7261,0,0,0,0,0,0.7369,0.7356,0.7359,0.7356,0.7345,0.7333,0.7332,0.7333,0.734,0.7333,0.7331,0.7336,0.7311,0.732,0.7317,0.7306,0.7283,0.7281,0.7279,0.7267,0.7264,0.7261,0,0,0,0,0,0,0.736,0.7356,0.7359,0.7344,0.7339,0.7335,0.7327,0.733,0.7323,0.7324,0.7326,0.7324,0.7309,0.7306,0.7316,0.7287,0.7298,0.7296,0.729,0.7286,0.7284,0.7284,0.7326,0,0,0,0,0,0.7356,0.7348,0.7344,0.7332,0.7329,0.7328,0.7323,0.7325,0.7319,0.7317,0.7314,0.7308,0.7299,0.7293,0.7284,0.7266,0.7264,0.7257,0.7255,0.7252,0.725,0.7238,0.7234,0.7273,0.7273,0.7273,0,0,0.7349,0.7345,0.734,0.733,0.7326,0.7316,0.7326,0.7316,0.7308,0.7315,0.7301,0.7298,0.7292,0.7275,0.7267,0.7272,0.7239,0.725,0.7249,0.7248,0.7235,0.7232,0.7228,0.7272,0.7273,0.7273,0,0,0.733,0.7327,0.7315,0.731,0.7304,0.7303,0.73,0.7295,0.7293,0.7279,0.7283,0.7273,0.7258,0.7252,0.7247,0.7223,0.7226,0.722,0.7206,0.7194,0.7191,0.7188,0.7177,0.7173,0.7218,0.7218,0.7218,0,0.7321,0.7307,0.7309,0.7297,0.7292,0.7297,0.7284,0.7279,0.727,0.7266,0.7272,0.725,0.7247,0.7227,0.7221,0.7217,0.7212,0.722,0.7191,0.7188,0.7186,0.7175,0.7171,0.7217,0.7217,0.7217,0.7217,0,0.7295,0.7285,0.7276,0.7267,0.726,0.7248,0.7247,0.724,0.7241,0.7239,0.7222,0.7218,0.7207,0.7203,0.7205,0.7182,0.7185,0.7191,0.7201,0.7181,0.7171,0.7167,0.7216,0.7216,0.7216,0.7217,0,0,0.7272,0.7261,0.7258,0.7252,0.7244,0.7236,0.7223,0.7212,0.7205,0.7198,0.7186,0.7172,0.7176,0.717,0.7171,0.7161,0.7138,0.7168,0.7167,0.716,0.7111,0.7105,0.71,0.7141,0.714,0.714,0.711,0,0.7251,0.7228,0.7228,0.7207,0.7196,0.72,0.7188,0.7181,0.7178,0.7168,0.7165,0.7154,0.7162,0.7158,0.7148,0.7143,0.7128,0.7146,0.7128,0.7127,0.7128,0.7096,0.709,0.7063,0.7107,0.7106,0.7106,0,0.7224,0.7215,0.7192,0.7183,0.7179,0.7168,0.7157,0.7147,0.7139,0.7137,0.7129,0.7131,0.7116,0.7127,0.7105,0.7117,0.7109,0.7106,0.7105,0.7102,0.7114,0.709,0.7055,0.705,0.71,0.7101,0.7101,0,0.7206,0.7188,0.7172,0.7167,0.7157,0.7149,0.7144,0.7136,0.7129,0.7118,0.7113,0.7101,0.7094,0.7085,0.7082,0.7091,0.7059,0.7071,0.7056,0.7056,0.7048,0.7049,0.7009,0.7046,0.7046,0.7046,0.7046,0,0.7182,0.7168,0.7163,0.7153,0.7136,0.7136,0.7119,0.7114,0.7106,0.7094,0.7097,0.7085,0.7084,0.7071,0.7069,0.7049,0.7047,0.7044,0.7043,0.7043,0.7043,0.7037,0.7038,0.7045,0.7046,0.7046,0.7046,0,0.716,0.7157,0.7138,0.7129,0.7126,0.7114,0.7106,0.7095,0.7091,0.7076,0.7072,0.7066,0.7051,0.7048,0.7031,0.7029,0.7005,0.7007,0.7008,0.7007,0.6992,0.6992,0.6946,0.6939,0.6982,0.6982,0.6982,0,0.7144,0.7133,0.7122,0.7113,0.7108,0.7095,0.7087,0.7085,0.7076,0.7063,0.7053,0.7039,0.7026,0.7002,0.6996,0.6981,0.6982,0.6967,0.698,0.6979,0.6979,0.6979,0.6976,0.6964,0.6963,0.6963,0.6963,0,0.7116,0.7114,0.7102,0.7089,0.7079,0.7068,0.7058,0.7051,0.7047,0.7037,0.7021,0.7012,0.6992,0.6977,0.6962,0.6956,0.6957,0.6958,0.6954,0.6952,0.6952,0.695,0.6999,0.6959,0.696,0.696,0.696,0.696,0.7095,0.7084,0.7073,0.7059,0.7051,0.7041,0.7029,0.7024,0.7011,0.6995,0.6994,0.6976,0.6965,0.6945,0.6937,0.6922,0.6927,0.6921,0.6919,0.6917,0.6914,0.6956,0.692,0.692,0.692,0.692,0.692,0,0.7065,0.7058,0.7045,0.703,0.7018,0.7021,0.7009,0.6998,0.6983,0.6972,0.6959,0.6939,0.6923,0.6915,0.6898,0.6888,0.6888,0.6883,0.6883,0.6881,0.6913,0.6917,0.6883,0.6883,0.6883,0.6883,0.6883,0.6883,0.7048,0.7028,0.7025,0.7,0.6993,0.6975,0.6968,0.6958,0.6949,0.6926,0.6913,0.6907,0.6897,0.6879,0.6863,0.6861,0.6854,0.6848,0.6846,0.6876,0.6879,0.6883,0.6887,0.6847,0.6847,0.6816,0.6815,0.6815]}]]